TimeEST,TemperatureF,Dew PointF,Humidity,Sea Level PressureIn,VisibilityMPH,Wind Direction,Wind SpeedMPH,Gust SpeedMPH,PrecipitationIn,Events,Conditions,WindDirDegrees,DateUTC
12:54 AM,54.0,53.1,97,30.41,8.0,Calm,Calm,-,N/A,,Clear,0,2013-01-10 05:54:00
1:54 AM,53.1,52.0,96,30.42,8.0,Calm,Calm,-,N/A,,Clear,0,2013-01-10 06:54:00
2:54 AM,53.1,51.1,93,30.42,7.0,Calm,Calm,-,N/A,,Clear,0,2013-01-10 07:54:00
3:54 AM,52.0,51.1,97,30.43,6.0,Calm,Calm,-,N/A,,Clear,0,2013-01-10 08:54:00
4:16 AM,50.0,50.0,100,30.41,2.0,Calm,Calm,-,N/A,,Clear,0,2013-01-10 09:16:00
4:26 AM,50.0,48.2,94,30.41,3.0,Calm,Calm,-,N/A,,Clear,0,2013-01-10 09:26:00
4:54 AM,50.0,48.9,96,30.42,4.0,Calm,Calm,-,N/A,,Clear,0,2013-01-10 09:54:00
5:54 AM,50.0,48.9,96,30.43,5.0,Calm,Calm,-,N/A,,Clear,0,2013-01-10 10:54:00
6:37 AM,48.2,48.2,100,30.45,1.8,Calm,Calm,-,N/A,,Clear,0,2013-01-10 11:37:00
6:47 AM,48.2,48.2,100,30.45,3.0,Calm,Calm,-,N/A,,Clear,0,2013-01-10 11:47:00
6:54 AM,48.9,48.0,97,30.45,4.0,Calm,Calm,-,N/A,,Clear,0,2013-01-10 11:54:00
7:54 AM,51.1,48.9,92,30.48,5.0,NE,3.5,-,N/A,,Clear,40,2013-01-10 12:54:00
8:54 AM,55.9,51.1,84,30.49,8.0,NE,8.1,-,N/A,,Clear,50,2013-01-10 13:54:00
9:54 AM,61.0,50.0,67,30.49,10.0,ENE,9.2,-,N/A,,Clear,60,2013-01-10 14:54:00
10:54 AM,64.0,46.9,54,30.48,10.0,ENE,11.5,-,N/A,,Clear,70,2013-01-10 15:54:00
11:54 AM,64.9,46.9,52,30.45,10.0,ENE,8.1,-,N/A,,Clear,70,2013-01-10 16:54:00
12:54 PM,66.9,48.0,51,30.42,10.0,ENE,8.1,-,N/A,,Clear,60,2013-01-10 17:54:00
1:54 PM,69.1,50.0,51,30.41,10.0,NE,5.8,-,N/A,,Clear,50,2013-01-10 18:54:00
2:54 PM,69.1,51.1,53,30.42,10.0,ENE,4.6,-,N/A,,Clear,70,2013-01-10 19:54:00
3:54 PM,69.1,52.0,54,30.41,10.0,ENE,6.9,-,N/A,,Clear,70,2013-01-10 20:54:00
4:54 PM,66.0,53.1,63,30.42,10.0,ESE,6.9,-,N/A,,Clear,110,2013-01-10 21:54:00
5:54 PM,63.0,52.0,67,30.43,10.0,East,3.5,-,N/A,,Clear,90,2013-01-10 22:54:00
6:54 PM,59.0,51.1,75,30.44,10.0,SE,5.8,-,N/A,,Clear,130,2013-01-10 23:54:00
7:54 PM,55.9,50.0,80,30.44,10.0,Calm,Calm,-,N/A,,Overcast,0,2013-01-11 00:54:00
8:54 PM,57.9,48.0,70,30.42,10.0,East,5.8,-,N/A,,Overcast,100,2013-01-11 01:54:00
9:54 PM,57.9,44.1,60,30.42,10.0,ESE,8.1,-,N/A,,Overcast,110,2013-01-11 02:54:00
10:54 PM,57.0,41.0,55,30.41,10.0,East,5.8,-,N/A,,Overcast,90,2013-01-11 03:54:00
11:44 PM,55.4,39.2,54,30.41,10.0,ENE,5.8,-,N/A,,Overcast,60,2013-01-11 04:44:00
11:54 PM,55.0,37.9,53,30.41,10.0,ENE,8.1,-,N/A,,Overcast,70,2013-01-11 04:54:00